YO2LC Weather Reports


time (UTC)temp
C
wind
direction
speed
KPH
gust
KPH
rain 1hr
cm
rain 24hr
cm
rain mn
cm
humidity
%
barometer
mb
20260506093040 24 170 0.0 0.0 0.00 0.00 0.00 46 1014.8
20260506092540 24 170 0.0 0.0 0.00 0.00 0.00 46 1014.8
20260506092041 24 170 0.0 0.0 0.00 0.00 0.00 45 1014.8
20260506091540 24 170 0.0 0.0 0.00 0.00 0.00 46 1014.8
20260506091036 24 170 0.0 0.0 0.00 0.00 0.00 45 1014.8
20260506090536 24 170 0.0 0.0 0.00 0.00 0.00 46 1014.8
20260506090034 24 170 0.0 0.0 0.00 0.00 0.00 45 1014.9
20260506085534 24 170 0.0 0.0 0.00 0.00 0.00 44 1015.0
20260506085033 24 170 0.0 0.0 0.00 0.00 0.00 44 1014.9
20260506084533 24 170 0.0 0.0 0.00 0.00 0.00 44 1014.8
20260506084032 24 170 0.0 0.0 0.00 0.00 0.00 46 1014.9
20260506083532 24 170 0.0 0.0 0.00 0.00 0.00 45 1014.9
20260506083032 23 170 0.0 0.0 0.00 0.00 0.00 46 1014.8
20260506082530 23 170 0.0 0.0 0.00 0.00 0.00 45 1014.8
20260506082033 23 170 0.0 0.0 0.00 0.00 0.00 49 1014.8
20260506081532 23 170 0.0 0.0 0.00 0.00 0.00 49 1014.8
20260506081028 24 170 0.0 0.0 0.00 0.00 0.00 47 1014.9
20260506080526 23 170 0.0 0.0 0.00 0.00 0.00 48 1014.9
20260506073519 22 170 0.0 0.0 0.00 0.00 0.00 58 1015.1
20260506073014 22 170 0.0 0.0 0.00 0.00 0.00 58 1015.0
20260506072512 21 170 0.0 0.0 0.00 0.00 0.00 59 1015.1
20260506072008 21 170 0.0 0.0 0.00 0.00 0.00 60 1015.1
20260506071510 20 170 0.0 0.0 0.00 0.00 0.00 60 1015.1
20260506071008 21 170 0.0 0.0 0.00 0.00 0.00 59 1015.1
20260506070508 21 170 0.0 0.0 0.00 0.00 0.00 58 1015.0
20260506062055 19 170 0.0 0.0 0.00 0.00 0.00 65 1015.0
20260506061554 19 170 0.0 0.0 0.00 0.00 0.00 66 1015.1
20260506061052 18 170 0.0 0.0 0.00 0.00 0.00 66 1015.2
20260506060550 18 170 0.0 0.0 0.00 0.00 0.00 67 1015.2
20260506051036 15 170 0.0 0.0 0.00 0.00 0.00 71 1015.2
20260506050536 15 170 0.0 0.0 0.00 0.00 0.00 72 1015.1
20260506045035 13 170 0.0 0.0 0.00 0.00 0.00 74 1015.0
20260506044537 14 170 0.0 0.0 0.00 0.00 0.00 73 1015.1
20260506044034 14 170 0.0 0.0 0.00 0.00 0.00 73 1015.0
20260506043533 13 170 0.0 0.0 0.00 0.00 0.00 75 1014.9
20260506043030 13 170 0.0 0.0 0.00 0.00 0.00 74 1015.0
20260506042529 13 170 0.0 0.0 0.00 0.00 0.00 74 1014.9
20260506042027 13 170 0.0 0.0 0.00 0.00 0.00 74 1014.9
20260506041527 13 170 0.0 0.0 0.00 0.00 0.00 76 1014.8
20260506041027 12 170 0.0 0.0 0.00 0.00 0.00 76 1014.8
20260506040525 12 170 0.0 0.0 0.00 0.00 0.00 77 1014.8
20260506040027 12 170 0.0 0.0 0.00 0.00 0.00 77 1014.7
20260506035523 12 170 0.0 0.0 0.00 0.00 0.00 78 1014.6
20260506035023 11 170 0.0 0.0 0.00 0.00 0.00 79 1014.6
20260506034522 12 170 0.0 0.0 0.00 0.00 0.00 78 1014.6
20260506034020 11 170 0.0 0.0 0.00 0.00 0.00 79 1014.4
20260506033524 11 170 0.0 0.0 0.00 0.00 0.00 79 1014.3
20260506033020 11 170 0.0 0.0 0.00 0.00 0.00 79 1014.3
20260506032518 11 170 0.0 0.0 0.00 0.00 0.00 78 1014.3
20260506032018 11 170 0.0 0.0 0.00 0.00 0.00 78 1014.3
20260506031526 11 170 0.0 0.0 0.00 0.00 0.00 78 1014.2
20260506031019 11 170 0.0 0.0 0.00 0.00 0.00 78 1014.2
20260506030518 11 170 0.0 0.0 0.00 0.00 0.00 78 1014.3
20260506030015 11 170 0.0 0.0 0.00 0.00 0.00 78 1014.2
20260506025514 11 170 0.0 0.0 0.00 0.00 0.00 78 1014.2
20260506025013 11 170 0.0 0.0 0.00 0.00 0.00 78 1014.1
20260506024527 11 170 0.0 0.0 0.00 0.00 0.00 77 1014.2
20260506024012 11 170 0.0 0.0 0.00 0.00 0.00 77 1014.2
20260506023511 11 170 0.0 0.0 0.00 0.00 0.00 77 1014.2
20260506023011 11 170 0.0 0.0 0.00 0.00 0.00 77 1014.2
20260506022510 11 170 0.0 0.0 0.00 0.00 0.00 77 1014.2
20260506022013 11 170 0.0 0.0 0.00 0.00 0.00 77 1014.1
20260506021510 11 170 0.0 0.0 0.00 0.00 0.00 76 1014.2
20260506021007 11 170 0.0 0.0 0.00 0.00 0.00 76 1014.2
20260506020506 11 170 0.0 0.0 0.00 0.00 0.00 76 1014.2
20260506020006 11 170 0.0 0.0 0.00 0.00 0.00 76 1014.2
20260506015508 11 170 0.0 0.0 0.00 0.00 0.00 76 1014.2
20260506015004 11 170 0.0 0.0 0.00 0.00 0.00 76 1014.3
20260506014507 11 170 0.0 0.0 0.00 0.00 0.00 75 1014.3
20260506014001 11 170 0.0 0.0 0.00 0.00 0.00 75 1014.2
20260506013600 12 170 0.0 0.0 0.00 0.00 0.00 74 1014.3
20260506013059 12 170 0.0 0.0 0.00 0.00 0.00 74 1014.3
20260506012557 12 170 0.0 0.0 0.00 0.00 0.00 73 1014.3
20260506012056 12 170 0.0 0.0 0.00 0.00 0.00 72 1014.3
20260506011619 12 170 0.0 0.0 0.00 0.00 0.00 72 1014.3
20260506011055 12 170 0.0 0.0 0.00 0.00 0.00 72 1014.2
20260506010555 12 170 0.0 0.0 0.00 0.00 0.00 72 1014.4
20260506010052 12 170 0.0 0.0 0.00 0.00 0.00 72 1014.3
20260506005550 12 170 0.0 0.0 0.00 0.00 0.00 72 1014.4
20260506005050 13 170 0.0 0.0 0.00 0.00 0.00 71 1014.4
20260506004601 13 170 0.0 0.0 0.00 0.00 0.00 70 1014.4
20260506004048 13 170 0.0 0.0 0.00 0.00 0.00 69 1014.3
20260506003548 13 170 0.0 0.0 0.00 0.00 0.00 68 1014.4
20260506003048 14 170 0.0 0.0 0.00 0.00 0.00 67 1014.4
20260506002551 14 170 0.0 0.0 0.00 0.00 0.00 66 1014.4
20260506002045 15 170 0.0 0.0 0.00 0.00 0.00 65 1014.4
20260506001545 15 170 0.0 0.0 0.00 0.00 0.00 64 1014.4
20260506001043 15 170 0.0 0.0 0.00 0.00 0.00 62 1014.2
20260506000542 16 170 0.0 0.0 0.00 0.00 0.00 62 1014.2
20260506000110 16 170 0.0 0.0 0.00 0.00 0.00 61 1014.1
20260505235542 16 170 0.0 0.0 0.00 0.00 0.00 61 1014.0
20260505235039 16 170 0.0 0.0 0.00 0.00 0.00 62 1014.0
20260505234545 16 170 0.0 0.0 0.00 0.00 0.00 62 1014.0
20260505234137 15 170 0.0 0.0 0.00 0.00 0.00 63 1013.9
20260505233535 15 170 0.0 0.0 0.00 0.00 0.00 64 1013.9
20260505233035 14 170 0.0 0.0 0.00 0.00 0.00 65 1013.9
20260505232536 14 170 0.0 0.0 0.00 0.00 0.00 65 1013.8
20260505232134 14 170 0.0 0.0 0.00 0.00 0.00 65 1014.0
20260505231533 14 170 0.0 0.0 0.00 0.00 0.00 65 1014.0
20260505231031 14 170 0.0 0.0 0.00 0.00 0.00 66 1013.9
20260505230529 14 170 0.0 0.0 0.00 0.00 0.00 64 1013.7
20260505230049 15 170 0.0 0.0 0.00 0.00 0.00 64 1013.5
20260505225530 15 170 0.0 0.0 0.00 0.00 0.00 62 1013.5
20260505225028 16 170 0.0 0.0 0.00 0.00 0.00 61 1013.4
20260505224536 16 170 0.0 0.0 0.00 0.00 0.00 61 1013.3
20260505224024 16 170 0.0 0.0 0.00 0.00 0.00 61 1013.3
20260505223523 15 170 0.0 0.0 0.00 0.00 0.00 62 1013.4
20260505223025 15 170 0.0 0.0 0.00 0.00 0.00 63 1013.6
20260505222524 15 170 0.0 0.0 0.00 0.00 0.00 63 1013.3
20260505222018 15 170 0.0 0.0 0.00 0.00 0.00 64 1013.1
20260505221518 14 170 0.0 0.0 0.00 0.00 0.00 66 1013.1
20260505221017 13 170 0.0 0.0 0.00 0.00 0.00 67 1013.0
20260505220515 12 170 0.0 0.0 0.00 0.00 0.00 69 1012.7
20260505220013 13 170 0.0 0.0 0.00 0.00 0.00 68 1012.7
20260505215512 13 170 0.0 0.0 0.00 0.00 0.00 68 1012.6
20260505215014 13 170 0.0 0.0 0.00 0.00 0.00 68 1012.7
20260505214514 13 170 0.0 0.0 0.00 0.00 0.00 68 1012.7
20260505214009 13 170 0.0 0.0 0.00 0.00 0.00 67 1012.7
20260505213509 13 170 0.0 0.0 0.00 0.00 0.00 67 1012.7
20260505213007 13 170 0.0 0.0 0.00 0.00 0.00 67 1012.7
20260505212506 13 170 0.0 0.0 0.00 0.00 0.00 67 1012.7
20260505212008 13 170 0.0 0.0 0.00 0.00 0.00 67 1012.7
20260505211503 13 170 0.0 0.0 0.00 0.00 0.00 66 1012.7
20260505211101 13 170 0.0 0.0 0.00 0.00 0.00 66 1012.6
20260505210601 13 170 0.0 0.0 0.00 0.00 0.00 65 1012.7
20260505210059 13 170 0.0 0.0 0.00 0.00 0.00 64 1012.7
20260505205559 14 170 0.0 0.0 0.00 0.00 0.00 64 1012.7
20260505205058 14 170 0.0 0.0 0.00 0.00 0.00 63 1012.7
20260505204602 15 170 0.0 0.0 0.00 0.00 0.00 62 1012.7
20260505204056 14 170 0.0 0.0 0.00 0.00 0.00 62 1012.7
20260505203556 14 170 0.0 0.0 0.00 0.00 0.00 63 1012.7
20260505203102 14 170 0.0 0.0 0.00 0.00 0.00 62 1012.7
20260505202555 14 170 0.0 0.0 0.00 0.00 0.00 63 1012.7
20260505202055 15 170 0.0 0.0 0.00 0.00 0.00 62 1012.7
20260505201552 15 170 0.0 0.0 0.00 0.00 0.00 61 1012.6
20260505201054 15 170 0.0 0.0 0.00 0.00 0.00 59 1012.6
20260505200552 16 170 0.0 0.0 0.00 0.00 0.00 59 1012.6
20260505200051 16 170 0.0 0.0 0.00 0.00 0.00 57 1012.6
20260505195550 16 170 0.0 0.0 0.00 0.00 0.00 56 1012.4
20260505195050 16 170 0.0 0.0 0.00 0.00 0.00 57 1012.3
20260505194605 16 170 0.0 0.0 0.00 0.00 0.00 57 1012.2
20260505194049 15 170 0.0 0.0 0.00 0.00 0.00 58 1012.2
20260505193551 16 170 0.0 0.0 0.00 0.00 0.00 57 1012.3
20260505193048 16 170 0.0 0.0 0.00 0.00 0.00 57 1012.3
20260505192547 16 170 0.0 0.0 0.00 0.00 0.00 55 1012.4
20260505192147 16 170 0.0 0.0 0.00 0.00 0.00 55 1012.4
20260505191555 16 170 0.0 0.0 0.00 0.00 0.00 55 1012.2
20260505191046 16 170 0.0 0.0 0.00 0.00 0.00 55 1012.2
20260505190547 16 170 0.0 0.0 0.00 0.00 0.00 56 1012.2
20260505190048 16 170 0.0 0.0 0.00 0.00 0.00 55 1012.1
20260505185545 16 170 0.0 0.0 0.00 0.00 0.00 55 1012.1
20260505185043 16 170 0.0 0.0 0.00 0.00 0.00 54 1012.1
20260505184543 17 170 0.0 0.0 0.00 0.00 0.00 54 1012.1
20260505184043 17 170 0.0 0.0 0.00 0.00 0.00 54 1012.1
20260505183542 17 170 0.0 0.0 0.00 0.00 0.00 54 1012.0
20260505183041 17 170 0.0 0.0 0.00 0.00 0.00 53 1012.0
20260505182540 17 170 0.0 0.0 0.00 0.00 0.00 53 1011.9
20260505182140 17 170 0.0 0.0 0.00 0.00 0.00 53 1011.9
20260505181539 17 170 0.0 0.0 0.00 0.00 0.00 53 1011.9
20260505181037 17 170 0.0 0.0 0.00 0.00 0.00 53 1011.9
20260505180537 18 170 0.0 0.0 0.00 0.00 0.00 53 1011.9
20260505180045 18 170 0.0 0.0 0.00 0.00 0.00 53 1011.9
20260505175536 18 170 0.0 0.0 0.00 0.00 0.00 53 1011.8
20260505175034 18 170 0.0 0.0 0.00 0.00 0.00 53 1011.9
20260505174534 19 170 0.0 0.0 0.00 0.00 0.00 53 1011.9
20260505174034 20 170 0.0 0.0 0.00 0.00 0.00 53 1011.9
20260505173636 20 170 0.0 0.0 0.00 0.00 0.00 53 1011.8
20260505173034 20 170 0.0 0.0 0.00 0.00 0.00 53 1011.8
20260505172533 21 170 0.0 0.0 0.00 0.00 0.00 52 1011.8
20260505172032 21 170 0.0 0.0 0.00 0.00 0.00 51 1011.9
20260505171531 22 170 0.0 0.0 0.00 0.00 0.00 50 1011.8
20260505171031 23 170 0.0 0.0 0.00 0.00 0.00 50 1011.9
20260505170530 23 170 0.0 0.0 0.00 0.00 0.00 50 1011.9
20260505170030 23 170 0.0 0.0 0.00 0.00 0.00 50 1011.9
20260505165529 24 170 0.0 0.0 0.00 0.00 0.00 48 1011.9
20260505165028 25 170 0.0 0.0 0.00 0.00 0.00 48 1011.8
20260505164528 26 170 0.0 0.0 0.00 0.00 0.00 47 1011.8
20260505164027 26 170 0.0 0.0 0.00 0.00 0.00 45 1011.8
20260505163525 27 170 0.0 0.0 0.00 0.00 0.00 44 1011.9
20260505163025 28 170 0.0 0.0 0.00 0.00 0.00 41 1012.0
20260505162524 28 170 0.0 0.0 0.00 0.00 0.00 38 1012.0
20260505162126 28 170 0.0 0.0 0.00 0.00 0.00 35 1012.0
20260505161525 28 170 0.0 0.0 0.00 0.00 0.00 34 1012.0
20260505161020 28 170 0.0 0.0 0.00 0.00 0.00 33 1012.0
20260505160520 28 170 0.0 0.0 0.00 0.00 0.00 33 1012.1
20260505153014 28 170 0.0 0.0 0.00 0.00 0.00 29 1012.3
20260505152513 28 170 0.0 0.0 0.00 0.00 0.00 28 1012.3
20260505152015 28 170 0.0 0.0 0.00 0.00 0.00 30 1012.3
20260505151514 28 170 0.0 0.0 0.00 0.00 0.00 29 1012.3
20260505151011 28 170 0.0 0.0 0.00 0.00 0.00 27 1012.4
20260505150511 28 170 0.0 0.0 0.00 0.00 0.00 27 1012.4
20260505140556 29 170 0.0 0.0 0.00 0.00 0.00 25 1012.9
20260505125033 29 170 0.0 0.0 0.00 0.00 0.00 27 1013.5
20260505124542 28 170 0.0 0.0 0.00 0.00 0.00 27 1013.6
20260505124031 28 170 0.0 0.0 0.00 0.00 0.00 27 1013.5
20260505123530 29 170 0.0 0.0 0.00 0.00 0.00 26 1013.7
20260505123028 28 170 0.0 0.0 0.00 0.00 0.00 27 1013.8
20260505122529 28 170 0.0 0.0 0.00 0.00 0.00 27 1013.7
20260505122026 28 170 0.0 0.0 0.00 0.00 0.00 27 1013.9
20260505121537 28 170 0.0 0.0 0.00 0.00 0.00 27 1014.0
20260505121024 28 170 0.0 0.0 0.00 0.00 0.00 28 1013.8
20260505120522 28 170 0.0 0.0 0.00 0.00 0.00 27 1014.1
20260505120024 28 170 0.0 0.0 0.00 0.00 0.00 27 1014.2
20260505115519 28 170 0.0 0.0 0.00 0.00 0.00 30 1014.2
20260505115019 28 170 0.0 0.0 0.00 0.00 0.00 30 1014.3
20260505114518 28 170 0.0 0.0 0.00 0.00 0.00 28 1014.4
20260505114018 28 170 0.0 0.0 0.00 0.00 0.00 29 1014.4
20260505113515 28 170 0.0 0.0 0.00 0.00 0.00 28 1014.5
20260505113015 28 170 0.0 0.0 0.00 0.00 0.00 28 1014.6
20260505112513 28 170 0.0 0.0 0.00 0.00 0.00 29 1014.7
20260505112012 28 170 0.0 0.0 0.00 0.00 0.00 30 1014.7
20260505111510 27 170 0.0 0.0 0.00 0.00 0.00 31 1014.8
20260505111009 27 170 0.0 0.0 0.00 0.00 0.00 31 1014.8
20260505110508 27 170 0.0 0.0 0.00 0.00 0.00 32 1014.8
20260505102056 26 170 0.0 0.0 0.00 0.00 0.00 36 1015.3
20260505101558 26 170 0.0 0.0 0.00 0.00 0.00 35 1015.3
20260505101053 26 170 0.0 0.0 0.00 0.00 0.00 35 1015.4
20260505100554 26 170 0.0 0.0 0.00 0.00 0.00 38 1015.4
20260505100128 26 170 0.0 0.0 0.00 0.00 0.00 40 1015.5
20260505095553 26 170 0.0 0.0 0.00 0.00 0.00 38 1015.5
20260505095050 26 170 0.0 0.0 0.00 0.00 0.00 40 1015.5
20260505094547 26 170 0.0 0.0 0.00 0.00 0.00 39 1015.5
20260505094046 26 170 0.0 0.0 0.00 0.00 0.00 38 1015.7
20260505093546 26 170 0.0 0.0 0.00 0.00 0.00 39 1015.7